Satellite: NOAA-12 Catalog number: 21263 Epoch time: 13010.24687747 Element set: 677 Inclination: 098.7120 deg RA of node: 036.7736 deg Eccentricity: 0.0013235 Arg of perigee: 322.7838 deg Mean anomaly: 037.2424 deg Mean motion: 14.25541079 rev/day Decay rate: 1.13e-06 rev/day^2 Epoch rev: 12605 Checksum: 282
Satellite: MET-3/5 Catalog number: 21655 Epoch time: 13009.17378428 Element set: 592 Inclination: 082.5564 deg RA of node: 006.6447 deg Eccentricity: 0.0013880 Arg of perigee: 162.9889 deg Mean anomaly: 197.1701 deg Mean motion: 13.17039162 rev/day Decay rate: 3.93e-06 rev/day^2 Epoch rev: 2900 Checksum: 311
Satellite: MET-2/21 Catalog number: 22782 Epoch time: 13010.21414826 Element set: 633 Inclination: 082.5470 deg RA of node: 228.2462 deg Eccentricity: 0.0021287 Arg of perigee: 292.8692 deg Mean anomaly: 220.5367 deg Mean motion: 13.83696937 rev/day Decay rate: 1.2e-07 rev/day^2 Epoch rev: 97779 Checksum: 314
Satellite: OKEAN-4 Catalog number: 23317 Epoch time: 13010.97818730 Element set: 107 Inclination: 082.5382 deg RA of node: 196.8802 deg Eccentricity: 0.0022383 Arg of perigee: 029.4855 deg Mean anomaly: 330.7618 deg Mean motion: 14.84194318 rev/day Decay rate: 1.037e-05 rev/day^2 Epoch rev: 98562 Checksum: 310
Satellite: NOAA-14 Catalog number: 23455 Epoch time: 13010.32294650 Element set: 158 Inclination: 098.8159 deg RA of node: 097.0944 deg Eccentricity: 0.0010334 Arg of perigee: 085.3551 deg Mean anomaly: 274.8802 deg Mean motion: 14.13889131 rev/day Decay rate: 3.8e-07 rev/day^2 Epoch rev: 93006 Checksum: 295
Satellite: NOAA-15 Catalog number: 25338 Epoch time: 13010.87551679 Element set: 567 Inclination: 098.7102 deg RA of node: 002.0477 deg Eccentricity: 0.0010004 Arg of perigee: 222.2746 deg Mean anomaly: 137.8139 deg Mean motion: 14.25166893 rev/day Decay rate: 1.91e-06 rev/day^2 Epoch rev: 76244 Checksum: 296
Satellite: RESURS Catalog number: 25394 Epoch time: 13009.54442919 Element set: 278 Inclination: 098.3438 deg RA of node: 353.1499 deg Eccentricity: 0.0001515 Arg of perigee: 042.6362 deg Mean anomaly: 106.1749 deg Mean motion: 14.24316594 rev/day Decay rate: 1.9e-07 rev/day^2 Epoch rev: 75377 Checksum: 311
Satellite: FENGYUN1 Catalog number: 25730 Epoch time: 13009.49023447 Element set: 781 Inclination: 098.8656 deg RA of node: 331.1215 deg Eccentricity: 0.0021870 Arg of perigee: 128.7537 deg Mean anomaly: 020.4457 deg Mean motion: 14.10025613 rev/day Decay rate: 2.669e-05 rev/day^2 Epoch rev: 70367 Checksum: 288
Satellite: OKEAN-0 Catalog number: 25860 Epoch time: 13009.53453256 Element set: 837 Inclination: 097.9694 deg RA of node: 334.3329 deg Eccentricity: 0.0000781 Arg of perigee: 089.4308 deg Mean anomaly: 021.1841 deg Mean motion: 14.74445614 rev/day Decay rate: 6.46e-06 rev/day^2 Epoch rev: 72497 Checksum: 316
Satellite: NOAA-16 Catalog number: 26536 Epoch time: 13010.82688155 Element set: 46 Inclination: 099.0672 deg RA of node: 061.8618 deg Eccentricity: 0.0010094 Arg of perigee: 216.0275 deg Mean anomaly: 144.0704 deg Mean motion: 14.12826715 rev/day Decay rate: 1.41e-06 rev/day^2 Epoch rev: 63435 Checksum: 281
Satellite: NOAA-17 Catalog number: 27453 Epoch time: 13010.86521093 Element set: 982 Inclination: 098.3214 deg RA of node: 033.2327 deg Eccentricity: 0.0010697 Arg of perigee: 267.8109 deg Mean anomaly: 092.2333 deg Mean motion: 14.24529919 rev/day Decay rate: 2.07e-06 rev/day^2 Epoch rev: 54832 Checksum: 299
Satellite: NOAA-18 Catalog number: 28654 Epoch time: 13010.87234341 Element set: 464 Inclination: 099.0770 deg RA of node: 337.0070 deg Eccentricity: 0.0013727 Arg of perigee: 292.8608 deg Mean anomaly: 067.1580 deg Mean motion: 14.11757276 rev/day Decay rate: 2.80e-06 rev/day^2 Epoch rev: 39386 Checksum: 309
Satellite: NOAA-19 Catalog number: 33591 Epoch time: 13010.85609715 Element set: 649 Inclination: 098.8868 deg RA of node: 314.2908 deg Eccentricity: 0.0014389 Arg of perigee: 151.6547 deg Mean anomaly: 208.5880 deg Mean motion: 14.11444456 rev/day Decay rate: 2.70e-06 rev/day^2 Epoch rev: 20230 Checksum: 315
/EX SB KEPS @ AMSAT $ORB13010.M Orbital Elements 13010.MISC
HR AMSAT ORBITAL ELEMENTS FOR MANNED AND MISCELLANEOUS SATELLITES FROM WA5QGD FORT WORTH,TX January 10, 2013 BID: ORB13010.M TO ALL RADIO AMATEURS BT
Satellite: HUBBLE Catalog number: 20580 Epoch time: 13010.98462545 Element set: 151 Inclination: 028.4698 deg RA of node: 223.0320 deg Eccentricity: 0.0003492 Arg of perigee: 120.4576 deg Mean anomaly: 239.6397 deg Mean motion: 15.03196328 rev/day Decay rate: 1.635e-05 rev/day^2 Epoch rev: 4601 Checksum: 273
Satellite: ISS Catalog number: 25544 Epoch time: 13010.92163891 Element set: 998 Inclination: 051.6445 deg RA of node: 169.5791 deg Eccentricity: 0.0015908 Arg of perigee: 143.5609 deg Mean anomaly: 216.6990 deg Mean motion: 15.52008169 rev/day Decay rate: 1.2264e-04 rev/day^2 Epoch rev: 21443 Checksum: 310
Satellite: CO-58 Catalog number: 28895 Epoch time: 13010.15209605 Element set: 376 Inclination: 097.8874 deg RA of node: 233.0176 deg Eccentricity: 0.0016976 Arg of perigee: 217.2504 deg Mean anomaly: 142.7483 deg Mean motion: 14.60923064 rev/day Decay rate: 6.43e-06 rev/day^2 Epoch rev: 38387 Checksum: 325
Satellite: FALCON Catalog number: 30776 Epoch time: 13009.65927274 Element set: 525 Inclination: 035.4320 deg RA of node: 094.1149 deg Eccentricity: 0.0001241 Arg of perigee: 352.5815 deg Mean anomaly: 126.4147 deg Mean motion: 15.09303740 rev/day Decay rate: 5.928e-05 rev/day^2 Epoch rev: 32144 Checksum: 275
Satellite: MAST Catalog number: 31126 Epoch time: 13010.45901250 Element set: 654 Inclination: 097.8746 deg RA of node: 015.4594 deg Eccentricity: 0.0093425 Arg of perigee: 183.8710 deg Mean anomaly: 176.1784 deg Mean motion: 14.54404636 rev/day Decay rate: 5.85e-06 rev/day^2 Epoch rev: 30439 Checksum: 296
Satellite: CAPE1 Catalog number: 31130 Epoch time: 13010.52562411 Element set: 666 Inclination: 097.8889 deg RA of node: 011.8401 deg Eccentricity: 0.0100548 Arg of perigee: 198.4135 deg Mean anomaly: 161.3413 deg Mean motion: 14.53264893 rev/day Decay rate: 7.20e-06 rev/day^2 Epoch rev: 30388 Checksum: 275
Satellite: COMPASS Catalog number: 32787 Epoch time: 13009.70128728 Element set: 513 Inclination: 097.7751 deg RA of node: 072.2746 deg Eccentricity: 0.0016427 Arg of perigee: 104.4365 deg Mean anomaly: 041.6130 deg Mean motion: 14.84867693 rev/day Decay rate: 2.659e-05 rev/day^2 Epoch rev: 25444 Checksum: 311
Satellite: AAUSAT2 Catalog number: 32788 Epoch time: 13009.75059154 Element set: 504 Inclination: 097.7760 deg RA of node: 072.8326 deg Eccentricity: 0.0015874 Arg of perigee: 104.1661 deg Mean anomaly: 013.6105 deg Mean motion: 14.85272066 rev/day Decay rate: 2.509e-05 rev/day^2 Epoch rev: 25448 Checksum: 300
Satellite: DO-64 Catalog number: 32789 Epoch time: 13010.20730406 Element set: 526 Inclination: 097.7902 deg RA of node: 076.1997 deg Eccentricity: 0.0015493 Arg of perigee: 098.1779 deg Mean anomaly: 295.2596 deg Mean motion: 14.87389348 rev/day Decay rate: 6.120e-05 rev/day^2 Epoch rev: 25463 Checksum: 346
Satellite: CO-66 Catalog number: 32791 Epoch time: 13009.22180376 Element set: 501 Inclination: 097.7754 deg RA of node: 071.3579 deg Eccentricity: 0.0016813 Arg of perigee: 106.8113 deg Mean anomaly: 285.4285 deg Mean motion: 14.84125923 rev/day Decay rate: 2.114e-05 rev/day^2 Epoch rev: 25429 Checksum: 304
Satellite: RS-30 Catalog number: 32953 Epoch time: 13010.86824422 Element set: 491 Inclination: 082.5008 deg RA of node: 166.0030 deg Eccentricity: 0.0018408 Arg of perigee: 213.6150 deg Mean anomaly: 146.3767 deg Mean motion: 12.43030736 rev/day Decay rate: 1.0e-07 rev/day^2 Epoch rev: 21036 Checksum: 245
Satellite: METEOR-M Catalog number: 35865 Epoch time: 13010.66940201 Element set: 127 Inclination: 098.6268 deg RA of node: 066.7904 deg Eccentricity: 0.0002531 Arg of perigee: 152.2886 deg Mean anomaly: 207.8425 deg Mean motion: 14.21877980 rev/day Decay rate: -2.2e-07 rev/day^2 Epoch rev: 17208 Checksum: 293
Satellite: RS-38 Catalog number: 35869 Epoch time: 13010.65854618 Element set: 94 Inclination: 098.6215 deg RA of node: 066.7353 deg Eccentricity: 0.0004452 Arg of perigee: 161.4863 deg Mean anomaly: 198.6474 deg Mean motion: 14.22108026 rev/day Decay rate: 2.9e-07 rev/day^2 Epoch rev: 17210 Checksum: 306
Satellite: JUGNU Catalog number: 37839 Epoch time: 13007.88495936 Element set: 309 Inclination: 019.9583 deg RA of node: 198.0869 deg Eccentricity: 0.0018962 Arg of perigee: 320.1732 deg Mean anomaly: 039.7205 deg Mean motion: 14.12117894 rev/day Decay rate: 6.20e-06 rev/day^2 Epoch rev: 6421 Checksum: 319
Satellite: SRMSAT Catalog number: 37841 Epoch time: 13010.48294713 Element set: 309 Inclination: 019.9691 deg RA of node: 191.3088 deg Eccentricity: 0.0012188 Arg of perigee: 304.0204 deg Mean anomaly: 055.9156 deg Mean motion: 14.10192794 rev/day Decay rate: 2.64e-06 rev/day^2 Epoch rev: 6448 Checksum: 288
Satellite: RAX-2 Catalog number: 37853 Epoch time: 13010.19591469 Element set: 394 Inclination: 101.7071 deg RA of node: 150.8865 deg Eccentricity: 0.0239862 Arg of perigee: 119.8962 deg Mean anomaly: 242.6298 deg Mean motion: 14.82101807 rev/day Decay rate: 6.756e-05 rev/day^2 Epoch rev: 6503 Checksum: 321
Satellite: AUBIESAT Catalog number: 37854 Epoch time: 13010.49097939 Element set: 393 Inclination: 101.7089 deg RA of node: 151.8784 deg Eccentricity: 0.0240155 Arg of perigee: 118.0289 deg Mean anomaly: 244.5451 deg Mean motion: 14.82690903 rev/day Decay rate: 7.624e-05 rev/day^2 Epoch rev: 6508 Checksum: 316
